Location: Napier
(39.4830°S, 176.9170°E)
Time: 08:49:09
(UTC+13:00)

Cosmos 1242 Rocket - Pass Details

Date: 24 January 2019
Orbit: 449 x 490 km, 81.2° (Epoch: 20 February)

Event Time Altitude Azimuth Distance (km) Brightness Sun altitude
Rises 22:54:03 0° 202° (SSW) 2,606 7.6 -21.6°
Reaches altitude 10° 22:56:23 10° 213° (SSW) 1,716 6.5 -21.9°
Maximum altitude 22:59:37 27° 272° (W) 978 4.4 -22.3°
Enters shadow 23:00:49 23° 304° (NW) 1,106 4.3 -22.4°
